SCP
0 0 0 0 0 0 0 0 0 0 0 0 0 0 0 0 0 0 0 0 0 0 0 0 0 0 0 0 0 1 1 1 1 1 1 1 0 0 0 0 0 0 0
0 0 0 0 0 0 0 0 0 0 0 0 0 0 0 0 0 0 0 0 0 0 0 0 0 0 0 0 1 1 1 1 1 1 0 0 0 0 0 0 0 0 0
0 0 0 0 0 0 0 0 0 0 0 0 0 0 0 0 0 0 0 0 0 0 0 0 0 0 1 1 1 1 1 1 1 0 0 0 0 0 0 0 0 0 0
0 0 0 0 0 0 0 0 0 0 0 0 0 0 0 0 0 0 0 0 0 0 0 0 0 0 0 1 1 1 1 1 0 0 0 0 0 0 0 0 0 0 0
0 0 0 0 0 0 0 0 0 0 0 0 0 0 0 0 0 0 0 0 0 0 0 0 0 0 0 0 1 0 0 0 0 0 0 0 0 0 0 0 0 0 0
0 0 0 0 0 0 0 0 0 0 0 0 0 0 0 0 0 0 0 0 0 0 0 0 0 0 0 0 0 0 0 0 0 0 0 0 0 0 0 0 0 0 0
0 0 0 0 0 0 0 0 0 0 0 0 0 0 0 0 0 0 0 0 0 0 0 0 0 0 0 0 0 0 0 0 0 0 0 0 0 0 0 0 0 0 0
0 0 0 0 0 0 0 0 0 0 0 0 0 0 0 0 0 0 0 0 0 0 0 0 0 0 0 0 0 0 0 0 0 0 0 0 0 0 0 0 0 0 0
0 0 0 0 0 0 0 0 0 0 0 0 0 0 0 0 0 0 0 0 0 0 0 0 0 0 0 0 0 0 0 0 0 0 0 0 0 0 0 0 0 0 0
0 0 0 0 0 0 0 0 0 0 0 0 0 0 0 0 0 0 0 0 0 0 0 0 0 0 0 0 0 0 0 0 0 0 0 0 0 0 0 0 0 0 0
0 0 0 0 0 0 0 0 0 0 0 0 0 0 0 0 0 0 0 0 0 0 0 0 0 0 0 0 0 0 0 0 0 0 0 0 0 0 0 0 0 0 0
0 0 0 0 0 0 0 0 0 0 0 0 0 0 0 0 0 0 0 0 0 0 0 0 0 0 0 0 0 0 0 0 0 0 0 0 0 0 0 0 0 0 0
0 0 0 0 0 0 0 0 0 0 0 0 0 0 0 0 0 0 0 0 0 0 0 0 0 0 0 0 0 0 0 0 0 0 0 0 0 0 0 0 0 0 0
0 0 0 0 0 0 0 0 0 0 0 0 0 0 0 0 0 0 0 0 0 0 0 0 0 0 0 0 0 0 0 0 0 0 0 0 0 0 0 0 0 0 0
0 0 0 0 0 0 0 0 0 0 0 0 0 0 0 0 0 0 0 0 0 0 0 0 0 0 0 0 0 0 0 0 0 0 0 0 1 1 1 1 1 0 0
0 0 0 0 0 0 0 0 0 0 0 0 0 0 0 0 0 0 0 0 0 0 0 0 0 0 0 0 0 0 0 0 0 0 0 0 1 1 1 1 1 1 1
0 0 0 0 0 0 0 0 0 0 0 0 0 0 0 0 0 0 0 0 0 0 0 0 0 0 0 0 0 0 0 0 0 0 0 0 0 1 1 1 1 1 1
0 0 0 0 0 0 0 0 0 0 0 0 0 0 0 0 0 0 0 0 0 0 0 0 0 0 0 0 0 0 0 0 0 0 0 0 0 1 1 1 1 1 1
0 0 0 0 1 1 1 1 1 1 1 1 1 0 0 0 0 0 0 0 0 0 0 0 0 0 0 0 0 0 0 0 0 0 0 0 0 0 1 1 1 1 1
0 0 0 1 1 1 1 1 1 1 1 1 1 1 0 0 0 0 0 0 0 0 0 0 0 0 0 0 0 0 0 0 0 0 0 0 0 0 0 1 1 1 1
1 1 1 1 1 2 2 3 3 2 2 1 1 1 1 1 1 1 0 0 0 0 0 0 0 0 0 0 0 0 0 0 0 0 0 0 0 0 0 0 0 1 1
2 2 1 1 2 3 4 4 4 3 2 2 1 1 1 1 1 1 0 0 0 0 0 0 0 0 0 0 0 1 1 0 0 0 0 0 0 0 0 0 0 0 0
3 3 3 3 3 4 5 6 5 4 4 2 2 1 1 1 1 1 0 0 0 0 0 0 0 1 1 1 1 1 1 1 1 0 0 0 0 0 0 0 0 0 0
4 4 4 4 4 5 6 6 6 5 4 3 3 2 1 1 1 1 1 0 0 0 1 1 1 1 1 1 1 1 1 1 1 1 0 0 0 0 0 0 0 0 0
4 4 5 5 5 5 6 6 5 4 4 4 3 2 1 1 1 1 1 1 0 0 1 1 1 1 1 1 1 1 1 1 1 1 0 0 0 0 0 0 0 0 0
4 4 5 5 5 5 5 5 4 4 4 4 3 2 2 1 1 1 1 1 1 0 1 1 1 1 1 1 1 1 1 1 1 0 0 0 0 0 0 0 0 0 0
Wind_Speed
11 14 17 15 15 14 14 14 13 12 12 11 11 10 10 10 9 9 9 9 8 8 7 7 7 8 7 7 7 6 6 5 5 5 5 3 3 3 3 2 2 4 6
14 15 17 15 15 14 13 13 13 12 12 11 11 10 10 9 9 9 9 9 8 8 8 8 8 7 7 7 8 7 6 5 5 6 5 5 6 4 3 3 3 5 5
15 14 16 15 15 15 13 13 12 12 12 11 11 10 10 9 8 8 9 9 9 8 9 9 8 8 8 7 8 8 8 7 7 7 3 4 6 6 4 5 6 7 6
14 13 14 16 15 15 14 13 12 12 12 12 11 10 10 9 8 8 9 9 9 9 9 9 9 8 8 8 8 8 8 8 7 4 3 5 4 8 5 5 5 6 7
13 12 13 14 14 14 14 13 13 12 12 12 11 10 10 9 8 8 9 9 10 10 10 10 9 9 9 8 7 7 7 8 5 3 4 4 4 6 5 5 4 5 6
13 12 14 14 13 13 13 12 13 12 12 12 11 10 9 9 8 7 8 9 10 10 11 10 10 10 10 9 8 8 9 7 6 3 2 2 4 5 4 4 4 5 5
13 12 14 14 13 13 13 12 13 13 13 12 11 10 9 8 8 7 8 9 10 10 10 10 10 10 10 9 9 9 8 4 3 3 1 1 4 4 3 3 3 4 4
13 12 13 14 12 12 12 12 13 13 13 13 12 11 10 8 8 7 8 9 9 9 9 9 9 9 9 8 7 8 6 2 5 4 3 3 5 2 3 2 2 4 4
12 12 11 14 13 13 11 12 13 14 14 13 13 12 10 9 8 8 8 8 8 8 8 8 8 7 7 7 7 7 6 3 2 3 4 5 4 3 3 3 2 2 3
11 11 11 11 11 12 12 13 13 14 14 13 13 12 11 10 9 8 8 7 6 7 6 6 7 7 7 8 8 6 3 5 1 3 2 6 4 3 3 4 3 2 2
9 9 10 10 10 10 10 12 12 13 13 13 12 12 12 10 10 9 7 7 7 7 6 6 6 6 6 9 8 4 5 1 2 1 3 6 3 1 2 2 2 1 1
12 11 9 9 9 9 8 9 8 9 11 11 10 12 9 7 5 4 12 6 7 7 6 5 5 6 7 6 7 6 1 1 2 1 4 5 3 2 1 1 1 1 1
11 10 9 9 9 9 7 7 6 5 7 8 9 10 7 6 5 5 6 8 8 8 7 7 8 4 4 3 1 2 2 3 2 2 5 7 5 4 4 4 3 3 2
10 10 10 10 9 9 8 6 6 6 6 6 9 10 7 5 5 5 4 5 5 4 3 3 2 4 4 6 4 2 3 2 2 2 5 7 7 6 5 5 5 4 3
10 10 11 11 10 9 8 6 7 7 6 7 6 8 8 6 6 5 5 4 5 5 5 3 3 4 3 3 2 1 3 4 3 3 3 7 8 8 6 4 5 5 5
10 11 11 11 11 10 9 8 7 7 7 6 7 8 9 7 6 5 6 6 5 5 4 4 3 4 3 2 2 2 2 3 3 2 3 5 7 9 7 3 2 4 4
11 11 11 11 12 12 11 9 7 7 7 7 7 9 9 8 7 6 5 6 6 6 7 4 4 3 3 3 3 1 2 2 2 2 3 2 4 7 9 6 2 1 2
11 12 12 10 12 12 10 9 7 8 8 7 7 7 10 10 9 6 5 5 6 6 5 4 4 4 4 4 3 3 2 1 0 2 1 1 3 3 8 10 7 3 3
12 12 13 14 14 13 12 9 8 7 7 6 7 7 8 9 9 7 5 5 7 6 6 5 5 5 4 3 3 3 2 2 1 2 1 0 2 1 3 7 9 9 5
11 13 14 14 15 14 11 9 7 7 7 6 6 7 9 8 9 6 5 7 7 6 6 6 6 5 4 4 4 4 4 3 3 2 2 2 1 2 1 2 4 7 8
11 14 16 16 15 13 11 10 8 7 6 6 6 8 9 9 10 8 7 8 7 8 9 9 7 8 7 6 5 5 5 6 5 4 4 3 3 2 3 2 1 2 5
8 12 16 18 16 16 12 11 9 8 6 6 6 7 9 10 10 9 11 8 9 8 10 10 8 6 6 6 6 5 5 6 6 6 5 5 5 4 4 4 4 2 2
10 10 11 14 14 14 12 9 8 7 5 5 5 5 8 9 9 9 10 9 9 9 8 9 10 10 7 7 7 5 5 4 2 5 6 6 5 4 5 5 4 5 3
13 11 9 9 11 11 10 9 11 7 6 5 4 4 6 8 8 8 8 8 8 7 8 9 10 8 8 7 6 6 7 5 4 3 5 6 5 6 6 4 6 5 5
12 10 5 4 8 9 8 8 7 5 3 3 2 1 2 3 5 6 7 7 7 6 8 8 7 8 7 7 6 6 7 6 9 7 5 4 4 6 6 7 6 5 4
11 8 2 5 8 9 8 9 10 10 7 5 4 3 1 1 3 6 6 6 6 6 6 7 7 8 7 8 7 7 7 7 7 7 8 6 5 5 7 6 6 5 5
Wind_Direction
155 150 144 147 146 144 141 138 135 133 134 137 135 131 125 118 111 106 101 100 102 99 97 97 104 110 113 119 127 124 118 114 112 102 87 89 114 109 78 76 213 138 110
150 148 148 151 150 149 146 143 140 138 137 136 132 130 127 121 115 111 102 94 94 92 86 84 85 90 97 110 120 118 108 102 105 92 82 103 104 103 87 67 27 88 113
147 148 153 156 156 155 153 150 147 144 142 139 135 132 126 121 116 109 101 93 88 86 83 79 78 80 84 99 113 116 110 102 105 104 128 94 101 96 81 75 80 94 100
148 153 153 154 159 161 162 160 157 152 150 146 140 136 131 126 118 109 101 95 90 86 84 80 79 83 85 92 108 120 125 123 119 167 145 84 81 94 89 80 80 89 91
152 154 145 156 160 163 166 167 163 159 155 150 145 143 140 134 125 115 108 101 95 89 86 81 76 78 87 97 111 124 129 129 135 215 92 88 83 101 108 104 100 100 98
158 157 152 164 165 165 167 168 164 161 158 156 152 151 148 142 136 131 122 111 102 94 88 83 74 69 76 89 104 119 118 131 185 142 124 126 104 116 129 140 141 122 113
162 162 158 168 167 166 169 170 167 163 162 160 157 155 151 146 144 145 136 122 111 101 92 85 77 69 63 71 93 110 120 155 161 126 117 76 81 116 133 150 155 135 126
163 167 160 166 172 172 175 175 173 166 165 163 160 157 153 149 145 139 134 125 116 107 98 89 80 74 66 64 87 105 116 220 124 110 94 73 68 97 112 125 156 150 144
166 173 171 172 176 179 181 181 178 169 167 166 163 159 156 151 147 138 132 128 122 115 106 97 86 79 73 69 84 98 89 14 120 96 94 74 68 76 92 96 111 147 152
174 180 181 180 179 178 180 183 180 173 169 168 166 163 158 155 154 149 157 138 137 130 115 103 96 91 86 84 86 92 114 236 75 128 93 78 56 70 91 98 106 114 136
188 189 188 185 181 182 181 172 178 176 172 171 171 168 174 179 168 172 137 139 147 136 122 112 103 106 119 113 101 119 227 276 71 349 56 53 15 38 97 112 123 132 125
191 194 193 194 183 184 181 166 183 182 178 187 178 177 195 181 169 152 119 156 146 137 140 125 125 169 212 150 141 202 189 279 277 344 56 26 330 281 223 195 183 196 192
193 191 200 197 190 185 182 176 185 182 182 192 180 180 198 174 170 175 160 166 165 173 174 152 194 181 174 118 117 111 45 338 346 0 52 15 331 286 247 229 217 216 220
197 193 196 200 195 194 188 185 186 186 185 184 188 186 188 188 190 171 190 162 162 181 177 200 217 175 181 161 157 134 106 34 30 22 60 24 354 322 276 244 222 212 214
196 199 198 200 201 196 193 192 189 195 195 191 192 191 189 190 194 172 184 177 187 175 177 197 215 171 197 161 120 68 79 71 56 30 81 58 26 7 337 292 235 221 219
205 206 198 202 203 199 194 199 194 194 191 196 197 202 194 192 197 186 187 188 188 186 183 193 173 157 184 156 126 102 47 72 77 48 58 98 66 32 11 341 270 237 218
213 213 204 205 205 205 203 202 192 196 194 196 199 204 198 196 199 194 191 189 190 188 190 201 164 171 154 157 178 164 84 23 28 34 47 42 95 74 44 28 8 258 176
227 220 208 203 209 206 203 202 198 199 195 200 196 208 202 197 204 197 196 194 194 192 196 191 204 195 178 191 183 171 177 160 251 353 297 81 55 76 81 53 47 56 127
248 235 218 207 207 205 201 200 201 200 196 201 200 204 207 204 206 200 203 200 194 202 205 201 209 209 202 200 198 195 213 214 204 251 268 12 102 44 82 95 77 54 57
265 249 237 215 210 202 197 199 193 196 196 201 205 206 207 206 212 210 205 212 204 208 216 219 213 220 231 217 218 213 223 225 227 215 258 275 262 78 30 96 130 94 66
249 247 241 226 209 201 191 193 185 188 190 201 210 211 208 210 213 215 222 220 213 217 221 225 219 219 224 222 224 223 217 224 229 202 218 240 222 213 215 184 174 153 125
278 254 241 227 210 202 196 187 182 175 182 190 205 208 211 215 218 221 221 221 219 225 230 232 222 226 225 218 228 237 238 214 212 215 213 226 237 208 232 214 187 191 196
316 287 253 232 205 195 190 176 164 154 149 165 193 205 213 216 217 223 226 225 227 224 229 229 222 222 220 222 230 234 256 263 227 198 214 219 225 236 232 229 216 182 180
332 318 280 230 194 177 175 176 165 164 159 161 172 193 210 215 215 217 225 228 230 223 225 226 222 222 219 221 225 232 245 257 255 237 201 216 218 231 242 221 236 217 184
337 331 315 187 156 154 160 164 139 113 103 94 106 155 200 221 216 208 212 215 227 226 230 229 223 222 222 225 227 227 239 249 251 254 242 211 206 220 230 232 227 227 203
345 346 9 130 131 135 138 132 120 107 95 78 50 11 345 241 223 205 204 210 219 225 229 230 227 228 238 238 235 234 235 239 236 238 243 237 226 209 204 215 232 221 219